Regional Weather Roundup
Issued by NWS

Home | Current Version | Previous Version | Text Only | Print | Product List | Glossary On
Versions: 1 2 3 4 5 6 7 8 9 10 11 12 13 14 15 16 17 18 19 20 21 22 23 24 25 26 27 28 29 30 31 32 33 34 35 36 37 38 39 40 41 42 43 44 45 46 47 48 49 50
000
ASUS43 KDTX 230410
RWRMI
MICHIGAN HOURLY REGIONAL WEATHER ROUNDUP
NATIONAL WEATHER SERVICE DETROIT/PONTIAC MI
1200 AM EDT TUE AUG 23 2016

NOTE: "FAIR" INDICATES FEW OR NO CLOUDS BELOW 12,000 FEET WITH NO
SIGNIFICANT WEATHER AND/OR OBSTRUCTION TO VISIBILITY.

MIZ047>049-052>055-059>063-066>070-074>076-081>083-230500-
SOUTHEAST LOWER MICHIGAN

CITY           SKY/WX    TMP DP  RH WIND       PRES   REMARKS
ADRIAN         CLEAR     62  56  80 CALM      30.22S
ALMA           CLEAR     58  58 100 CALM      30.19S
ANN ARBOR      CLEAR     53  53 100 CALM      30.21S
BAD AXE        CLEAR     61  55  82 S5        30.19R
CARO           CLEAR     58  57  99 CALM      30.19R
DETROIT CITY   CLEAR     67  54  63 CALM      30.21R
DETROIT        CLEAR     65  55  70 S3        30.22R
FLINT          CLEAR     65  54  67 S6        30.20R
GROSSE ILE     CLEAR     68  53  57 W5        30.21R
HILLSDALE      CLEAR     58  55  88 S3        30.22R
HOWELL         CLEAR     64  53  67 CALM      30.20S

CITY           SKY/WX    TMP DP  RH WIND       PRES   REMARKS
JACKSON        CLEAR     63  55  75 S5        30.21S
LAMBERTVILLE   CLEAR     60  56  87 CALM      30.22S
LANSING        CLEAR     64  55  72 SW3       30.21R
LAPEER         FAIR      55  54  94 CALM      30.20S
MASON          CLEAR     62  55  78 CALM      30.21R
MONROE         CLEAR     59  57  95 CALM      30.20S
MT. CLEMENS    CLEAR     65  55  69 SW3       30.18S
PONTIAC        CLEAR     62  54  74 CALM      30.20S
PORT HURON     CLEAR     55  55 100 CALM      30.21R
TRI CITIES     CLEAR     64  58  80 S5        30.19R
MIDLAND        FAIR      57  56  96 CALM      30.18R
TROY           CLEAR     68  51  54 SW3       30.23R
SAGINAW HB     CLEAR     61  55  82 SW5       30.18R
$$
MIZ043>046-050>051-056>058-064>065-071>073-077>080-230500-
SOUTHWEST LOWER MICHIGAN

CITY           SKY/WX    TMP DP  RH WIND       PRES   REMARKS
BATTLE CREEK   CLEAR     60  57  89 S5        30.21R
BENTON HARBOR  CLEAR     63  57  81 SE5       30.18S
BIG RAPIDS     CLEAR     56  55  95 CALM      30.18R
COLDWATER      CLEAR     61  58  88 CALM      30.21S
FREMONT        FAIR      60  51  71 S3        30.17R
HOLLAND        CLEAR     60  56  86 S5        30.18S
GRAND RAPIDS   CLEAR     61  55  81 S6        30.19R
IONIA          FAIR      60  56  87 S3        30.19R
KALAMAZOO      CLEAR     63  57  81 S3        30.20R
LUDINGTON      CLEAR     65  57  74 S8        30.13S
MARSHALL       CLEAR     63  57  82 CALM      30.21R
MOUNT PLEASANT CLEAR     59  56  91 CALM      30.18R
MUSKEGON       CLEAR     63  57  81 SE7       30.16R
SOUTH HAVEN    CLEAR     64  60  87 S3        30.18S
$$
MIZ016>042-230500-
NORTHERN LOWER MICHIGAN

CITY           SKY/WX    TMP DP  RH WIND       PRES   REMARKS
ALPENA         CLEAR     64  53  67 SW6       30.15R
BEAVER ISLAND  LGT RAIN  66  61  85 SW16G23   30.09F
BELLAIRE       MOCLDY    66  55  67 S3        30.16R
CADILLAC       CLEAR     60  53  78 S5        30.17R
CHARLEVOIX     CLOUDY    68  55  61 SW8       30.15S
FRANKFORT      CLOUDY    67  55  64 CALM      30.16R
GAYLORD        PTCLDY    62  52  69 SW7       30.17R
GRAYLING       CLEAR     62  54  74 SW3       30.18R
HARBOR SPRINGS MOCLDY    67  56  66 SW12G17   30.11F
HOUGHTON LAKE  CLEAR     64  55  72 S6        30.18R
MANISTEE       CLEAR     62  54  74 CALM      30.14R
OSCODA         CLEAR     60  55  84 SW6       30.15R
PELLSTON       CLOUDY    65  54  67 S6        30.11F
ROGERS CITY    PTCLDY    62  53  73 S3        30.14R
TRAVERSE CITY  CLOUDY    65  54  67 CALM      30.15R
$$
MIZ007>008-015-230500-
EASTERN UPPER MICHIGAN

CITY           SKY/WX    TMP DP  RH WIND       PRES   REMARKS
KINROSS        MOCLDY    64  56  75 S6        30.08F
MACKINAC ISLAN CLOUDY    67  55  64 S10G16    30.09F
NEWBERRY       CLOUDY    66  61  84 SW14      30.07R
S. S. MARIE    CLOUDY    61  55  81 SE3       30.08S
MUNISING         N/A     66  62  87 S10G20    30.00S
$$
MIZ004>006-011>014-085-230500-
CENTRAL UPPER MICHIGAN

CITY           SKY/WX    TMP DP  RH WIND       PRES   REMARKS
MANISTIQUE     RAIN      65  64  96 SW18G25   30.03S
ESCANABA       RAIN      66  63  90 S13       30.11R
MENOMINEE      CLOUDY   N/A N/A N/A S8        30.08R
SAWYER-GWINN   CLOUDY    62  60  91 SW15G21   30.06R
$$
MIZ001>003-009>011-084-230500-
WESTERN UPPER MICHIGAN

CITY           SKY/WX    TMP DP  RH WIND       PRES   REMARKS
IRON MOUNTAIN  CLOUDY    63  59  87 SE8       30.05F
HOUGHTON       CLOUDY    68  59  73 SW14      29.95S
COPPER HARBOR    N/A     70  61  73 SW14G26   29.92S
IRONWOOD       CLEAR     70  61  73 SW7       29.95R
$$

ABBREVIATIONS USED IN REMARKS
   TC - TEMPERATURE IN CELSIUS
  WCI - WIND CHILL INDEX
   HX - HEAT INDEX
  VSB - VISIBILITY





USA.gov is the U.S. government's official web portal to all federal, state and local government web resources and services.